Regional Weather Roundup
Issued by NWS

Home | Current Version | Previous Version | Text Only | Print | Product List | Glossary Off
Versions: 1 2 3 4 5 6 7 8 9 10 11 12 13 14 15 16 17 18 19 20 21 22 23 24 25 26 27

000
ASUS45 KSLC 151210
RWRUT

UTAH REGIONAL WEATHER ROUNDUP
NATIONAL WEATHER SERVICE SALT LAKE CITY UT
600 AM MDT TUE AUG 15 2017

UTZ001>011-023>025-151300-

NORTHERN UTAH

CITY           SKY/WX    TMP DP  RH WIND       PRES   REMARKS
BRIGHAM CITY   MOCLDY    59  51  75 CALM      29.94S
HILL AFB       MOCLDY    57  49  73 SE9       29.95S
LOGAN          CLOUDY    57  53  86 SW6       29.95S
OGDEN          PTCLDY    59  50  72 SE6       29.93F
SALT LAKE CITY MOCLDY    63  54  72 CALM      29.91F
TOOELE VALLEY  MOCLDY    59  50  72 CALM      29.93S
WENDOVER       MOCLDY    60  46  59 CALM      29.95R
HEBER CITY     CLOUDY    52  45  76 CALM      29.98R
WEST JORDAN    CLOUDY    60  55  85 CALM      29.94S

$$

UTZ011>015-024>027-151300-

CENTRAL/NORTHEAST UTAH

CITY           SKY/WX    TMP DP  RH WIND       PRES   REMARKS
PROVO AIRPORT    N/A     58  51  78 CALM      29.95R
MOAB/CANYONLAN CLOUDY    72  28  19 W6        29.86R
DELTA          CLOUDY    59  46  63 NE5       29.94S
PRICE          CLOUDY    63  47  55 S5        29.95R
ROOSEVELT      CLOUDY    61  55  82 CALM      29.97R
VERNAL         CLOUDY    61  54  77 NW3       29.95S

$$

UTZ013>016-019>022-027-151300-

SOUTHERN UTAH

CITY           SKY/WX    TMP DP  RH WIND       PRES   REMARKS
BRYCE CANYON   CLOUDY    47  40  76 SW5       30.12R
CEDAR CITY     CLOUDY    59  45  59 CALM      29.96S
MILFORD        CLOUDY    62  46  55 VRB6      29.95R
ST GEORGE      CLOUDY    76  36  23 S7        29.78S
HANKSVILLE     CLOUDY    64  28  25 CALM      29.88S
BLANDING       MOCLDY    55  40  56 NE8       30.09R

$$

REGIONAL REPORTS     COLORADO/ARIZONA

CITY           SKY/WX    TMP DP  RH WIND       PRES   REMARKS
CRAIG, CO      CLOUDY    53  48  83 CALM      30.00R
GRAND JUNCTION CLOUDY    63  49  60 E8        29.88S
RIFLE, CO      CLOUDY    55  50  83 CALM      29.96S
MONTROSE, CO   CLOUDY    65  40  39 E3        30.00R
CORTEZ, CO     CLOUDY    63  40  42 S13       30.03R
COLORADO CITY    N/A     61  45  55 CALM      29.96S
PAGE, AZ       MOCLDY    73  18  12 S3        29.89R
GRAND CANYON   CLOUDY    47  34  60 CALM      30.08S
KINGMAN, AZ    CLOUDY    70  34  26 SE6       29.84S
FLAGSTAFF, AZ  PTCLDY    57  33  40 W8        30.12R

$$

REGIONAL REPORTS    NEVADA/IDAHO/WYOMING

CITY           SKY/WX    TMP DP  RH WIND       PRES   REMARKS
LAS VEGAS, NV  CLOUDY    81  46  29 VRB5G17   29.71R
ELY, NY        CLOUDY    55  42  61 NE10      30.02R
ELKO, NV       PTCLDY    47  44  90 NE6       30.00S
POCATELLO, ID  MOCLDY    52  50  93 E6        29.97S
BURLEY, ID     CLEAR     48  46  93 E3        29.93R
EVANSTON, WY   CLOUDY    49  48  97 N3        30.06R
ROCK SPRINGS,  CLOUDY    50  47  89 CALM      30.05S
KEMMERER, WY     N/A     46  45  93 SE5       30.08R

$$




USA.gov is the U.S. government's official web portal to all federal, state and local government web resources and services.